Location: Byszew
(52.1813°N, 19.2693°E)
Time: 11:07:35
(UTC+00:00)

AIST 2D - Pass Details

Date: 30 June 2022
Orbit: 433 x 444 km, 97.0° (Epoch: 07 August)

Event Time Altitude Azimuth Distance (km) Brightness Sun altitude
Rises 21:20:47 0° 3° (N) 2,428 ? -12.4°
Reaches altitude 10° 21:23:03 10° 348° (NNW) 1,555 ? -12.5°
Maximum altitude 21:25:45 23° 294° (WNW) 969 ? -12.6°
Drops below altitude 10° 21:28:27 10° 239° (WSW) 1,547 ? -12.8°
Enters shadow 21:30:20 - 227° (SW) 2,260 ? -12.9°
